Погода в Болниси

Погода в Болниси : погода сейчас, прогноз погоды и архив. Всё, что Вы хотите узнать о погоде в Болниси!

Поиск расширенной информации на нашем сайте:

Другие новости

Новости СМИ2

Главная страница сайта

Новости сайта

03.07.2017

Напоминаем, что на нашем специализированном сайте Метеоцентр.Азия вы можете получить высокодетализированные автоматические прогнозы погоды по пунктам России, СНГ и мира в авиационном формате (включающие направление и скорость ветра, видимость, явления погоды, количество и форму облачности, нижнюю и верхнюю границу облачности).

Рекомендуем: Свадьба на Бали и других островах

Погода в Болниси - сегодня

Время (UTC), дата Ветер
(°,м/с) 
Видим.   Явления Облачность Т
(°С)
Тd
(°С)
f(%) Тe
(°С)
Pmin
(гПа)
dP
(гПа)
Po
(мм)
O2
(г/м3)
Тmin Tmax R s Состояние
почвы
21 19.11.17 270 (З) н/о    10/10 600 м 
[Sc]
+9.9 +0.6 52 +11  1016.6  -0.1  715  278           
00 20.11.17 тихо ()   н/о  {дождь}  10/10 600 м 
[Sc]
+8.6 +0.9 58 +9  1017.2  0.2  715  279           
03 20.11.17 270 (З) н/о    5/0 1000 м средняя 
[Ac trans]
+7.8 +1.9 66 +9  1017  -0.3  715  280      0.0     
06 20.11.17 тихо ()   20000 м    8/0 1000 м средняя, верхняя 
[Ac trans|Ci fib]
+11 +3 58 +11  1016.1  -0.1  715  276  +7.1    0.0     
09 20.11.17 тихо ()   20000 м    5/0 1000 м средняя 
[Ac trans]
+16.5 +1.7 37 +17  1013.2  -1.7  714  271           
12 20.11.17 090 (В) 20000 м    8/1 1000 м средняя, верхняя 
[Sc|Ac trans|Ci fib]
+15.9 +1.7 38 +17  1012.9  -0.3  713  271           
15 20.11.17 тихо ()   н/о    9/9 1000 м 
[Sc]
+12 +2.1 51 +12  1013.9  0.1  713  275    +17.6       
18 20.11.17 тихо ()   н/о    10/10 600 м 
[Sc]
+11 +3.2 59 +11  1014.1  713  276    +17.6       
21 20.11.17 тихо ()   н/о    10/10 600 м 
[Sc]
+10 +1.9 57 +10  1012.5  -1.8  712  276           
00 21.11.17 тихо ()   н/о    10/10 600 м 
[Sc]
+9.1 +1.9 61 +9  1012  -0.6  712  277           
03 21.11.17 тихо ()   н/о    10/10 600 м 
[Sc]
+8.6 +1.5 61 +9  1010.2  -1.8  710  277           
06 21.11.17 320 (СЗ) 20000 м    9/9 1000 м 
[Sc]
+10 +2.5 60 +11  1009.8  -0.1  710  276  +8.6         
09 21.11.17 270 (З) 20000 м    9/9 1000 м 
[Sc]
+15.4 +1.5 39 +17  1006.9  -1.6  709  270           
12 21.11.17 тихо ()   20000 м    9/9 1000 м 
[Sc]
+14.1 +1.5 42 +14  1006.1  -1  708  271           
15 21.11.17 тихо ()   н/о    10/10 600 м 
[Sc]
+12.9 +2.1 48 +13  1004.6  -1.7  707  272    +17.1       
18 21.11.17 тихо ()   н/о    10/10 600 м 
[Sc]
+10.4 +0.6 51 +10  1004  -1.1  706  274    +17.1       
21 21.11.17 тихо ()   н/о    10/10 600 м 
[Sc]
+10.2 +0.6 51 +10  1003.6  -0.4  706  274           
00 22.11.17 тихо ()   н/о  слаб. дождь  10/10 600 м 
[Sc|Ns]
+8 +3 71 +8  1007.3  3.1  708  277           
03 22.11.17 тихо ()   н/о  слаб. дождь  10/10 600 м 
[Sc|Ns]
+7.6 +2.5 70 +8  1008.3  0.8  709  277         
06 22.11.17 270 (З) 20000 м  {дождь}  8/5 1000 м средняя 
[Sc|Ac trans]
+8.2 +0.4 58 +9  1007.7  -0.5  708  277  +7.4       
09 22.11.17 270 (З) 20000 м    9/6 1000 м средняя 
[Sc|Ac trans]
+12.2 -3.6 33 +13  1006.4  -0.3  708  273           
12 22.11.17 270 (З) 20000 м    8/3 1000 м средняя, верхняя 
[Sc|Ac trans|Ci fib]
+10.3 -7.1 29 +10  1007.5  0.5  709  276           
15 22.11.17 270 (З) н/о    9/9 1000 м 
[Sc]
+8 -8.2 31 +8  1010  1.9  710  279    +13.6  0.0     
18 22.11.17 270 (З) н/о    3/0 1000 м средняя 
[Ac trans]
+6.2 -10.2 30 +7  1011.8  1.3  711  281    +13.6  0.0     
21 22.11.17 290 (З) н/о    6/0 1000 м средняя 
[Ac trans]
+2.8 -9.8 39 +4  1013.5  0.8  712  285           
Время (UTC), дата Ветер
(°,м/с) 
Видим.   Явления Облачность Т
(°С)
Тd
(°С)
f(%) Тe
(°С)
Pmin
(гПа)
dP
(гПа)
Po
(мм)
O2
(г/м3)
Тmin Tmax R s Состояние
почвы

Для получения пояснительной информации подведите курсор к названию столбца.

ПОГОДА в Болниси - архив

Всё, что Вы хотите узнать о погоде в Болниси - удобно и подробно!

Выберите нужную дату (начиная с 1 января 2015* года) и нажмите кнопку "Найти".
Будут отображены архивные сводки погоды по пункту Болниси, начиная с указанной даты.


Отображать данные в формате CSV (для использования в таблицах Excel)


Внимание! Наш архив погоды предназначен исключительно для личного некоммерческого использования в познавательных целях. Если Вам необходимы официальные справки о состоянии погоды (для производственных, юридических, коммерческих и т.п. целей), обращайтесь в органы Росгидромета.

*Примечание: данная дата относится к архиву по метеостанциям СССР (Россия, СНГ, Балтия).
Архив по метеостанциям Зарубежной Европы и Азии (кроме Китая) хранится 10 дней, по другим регионам земного шара (Китай, Африка, Америка, Австралия, Океания) - 1 день.

Болниси - район местоположения метеостанции


Название, широта, долгота, высота метеостанции:
Болниси 41.4°ш. 44.6°д. 534 м над ур. моря [Грузия]

Дополнительная информация

В oтличие oт бoльшинства пoгoдных сайтoв мы публикуем пoдрoбную метеoинфoрмацию в детальнoм прoфессиoнальнoм фoрмате.

Характеристики температуры и влажнoсти вoздуха измеряются на высoте 2 м в тени вдали oт зданий и деревьев.
Скoрoсть ветра измеряется на высoте 10 м (на урoвне рoста челoвека скoрoсть ветра ниже в 1.5-2 раза). Если метеoстанция нахoдится в гoрoде или в лесу, тo скoрoсть ветра занижена на 2-4 м/с пo сравнению с oткрытым местoм. Скoрoсть ветра над акватoриями крупных рек и oзёр, а также на вершинах хoлмoв на 2-5 м/с выше, чем в oбычных услoвиях.
Атмoсфернoе давление в разных тoчках местнoсти мoжет значительнo oтличаться oт давления на метеoстанции, в зависимoсти oт услoвий рельефа (при пoдъёме на 10 м давление пoнижается примернo на 1 мм рт.ст.).